This is the latest recevied weather packets stored in our database for station/object IZ1OSY-3. If no packets are shown the sender has not sent any weather packets the latest 10 day(s).
| Time | Temp. | Humidity | Pressure | Rain* | Wind** | Luminosity | Snow |
|---|---|---|---|---|---|---|---|
| 1777796260 | 12.78° C | 44% | 1020.3 hPa | - | - | - | - |
| 1777795964 | 12.78° C | 45% | 1020.1 hPa | - | - | - | - |
| 1777795059 | 12.78° C | 42% | 1020 hPa | - | - | - | - |
| 1777794763 | 12.78° C | 43% | 1019.9 hPa | - | - | - | - |
| 1777793858 | 12.22° C | 42% | 1020 hPa | - | - | - | - |
| 1777793562 | 12.78° C | 41% | 1020 hPa | - | - | - | - |
| 1777792657 | 12.22° C | 39% | 1019.9 hPa | - | - | - | - |
| 1777792362 | 12.22° C | 41% | 1020 hPa | - | - | - | - |
| 1777791457 | 12.22° C | 41% | 1020 hPa | - | - | - | - |
| 1777791160 | 11.67° C | 41% | 1019.9 hPa | - | - | - | - |
| 1777790256 | 11.67° C | 42% | 1020.1 hPa | - | - | - | - |
| 1777789959 | 11.67° C | 40% | 1020 hPa | - | - | - | - |
| 1777789055 | 11.11° C | 42% | 1019.9 hPa | - | - | - | - |
| 1777788759 | 11.11° C | 42% | 1020 hPa | - | - | - | - |
| 1777787854 | 11.11° C | 42% | 1020 hPa | - | - | - | - |
| 1777787558 | 11.11° C | 42% | 1020 hPa | - | - | - | - |
| 1777786653 | 10.56° C | 41% | 1019.9 hPa | - | - | - | - |
| 1777786357 | 10.56° C | 42% | 1019.9 hPa | - | - | - | - |
| 1777785452 | 10.56° C | 43% | 1019.8 hPa | - | - | - | - |
| 1777785156 | 10.56° C | 41% | 1019.8 hPa | - | - | - | - |
| 1777784252 | 10.56° C | 40% | 1019.7 hPa | - | - | - | - |
| 1777783955 | 10.56° C | 41% | 1019.8 hPa | - | - | - | - |
| 1777783051 | 10.56° C | 41% | 1019.7 hPa | - | - | - | - |
| 1777782754 | 10.56° C | 42% | 1019.6 hPa | - | - | - | - |
| 1777781850 | 10.56° C | 41% | 1019.7 hPa | - | - | - | - |
* Rain since midnight (hover to see other rain measurements)
** Current wind speed in m/s (hover to see current wind gust speed)